Home > Weather > The Settlement > Past weeks

Flag for Christmas Island Past Weather in The Settlement, Christmas Island — Yesterday and Last 2 Weeks

Now
75 °F

Low clouds.


Feels Like: 73 °F
Forecast: 76 / 80 °F
Wind: 10 mph from East

Location: Christmas Island Aerodrome

Current Time: May 30, 2016 at 2:30:02 AM

Latest Report: May 30, 2016 at 2:04 AM


Visibility: 0 mi

Pressure: 29.89 "Hg

Humidity: 100%

Dew Point: 75 °F

Location of The SettlementLocation

Past Weather in The Settlement — Graph

°F

The Settlement Temperature Yesterday

Maximum temperature yesterday: 82 °F (at 10:00 AM)
Minimum temperature yesterday: 75 °F (at 9:04 PM)
Average temperature yesterday: 78 °F

High & Low Weather Summary for the Past Weeks

 TemperatureHumidityPressure
High84 °F (May 17, 11:30 AM)100% (May 15, 11:00 AM)30.01 "Hg (May 15, 11:00 AM)
Low75 °F (May 16, 10:00 PM)70% (May 28, 3:00 PM)29.80 "Hg (May 20, 2:30 PM)
Average79 °F90%29.91 "Hg
* Reported May 15 1:00 AM — May 30 1:00 AM, The Settlement, Weather by CustomWeather, © 2016

Note: Actual official high and low records may vary slightly from our data, if they occured in-between our weather recording intervals... More about our weather records

Advertising

The Settlement Weather History for the Previous 24 Hours

Scroll right to see more
 ConditionsComfort  
Time TempWeatherWind HumidityBarometerVisibility
1:00 AM
Mon, May 30
77 °FLight rain. Overcast.5 mph94%29.89 "Hg4 mi
12:30 AM77 °FLight rain. Passing clouds.6 mph94%29.89 "HgN/A
12:00 AM77 °FLight rain. Passing clouds.6 mph94%29.92 "HgN/A
11:30 PM
Sun, May 29
75 °FLight rain. Partly cloudy.5 mph100%29.92 "HgN/A
11:00 PM75 °FDrizzle. Mostly cloudy.7 mph100%29.92 "Hg1 mi
10:00 PM75 °FRain. Low clouds.9 mph100%29.92 "Hg0 mi
9:04 PM75 °FLight rain. Mostly cloudy.13 mph94%29.95 "Hg0 mi
8:00 PM79 °FOvercast.8 mph89%29.92 "HgN/A
7:30 PM77 °FMostly cloudy.7 mph94%29.92 "HgN/A
7:00 PM77 °FOvercast.7 mph94%29.92 "HgN/A
6:30 PM77 °FClear.8 mph94%29.89 "HgN/A
6:00 PM77 °FDrizzle. Overcast.7 mph94%29.89 "HgN/A
5:30 PM77 °FDrizzle. Broken clouds.7 mph94%29.89 "HgN/A
5:00 PM77 °FHeavy rain. Cloudy.10 mph94%29.86 "Hg1 mi
4:00 PM77 °FCloudy.9 mph89%29.86 "HgN/A
3:00 PM79 °FOvercast.10 mph89%29.86 "HgN/A
2:30 PM79 °FOvercast.10 mph89%29.86 "HgN/A
2:00 PM81 °FOvercast.10 mph89%29.86 "HgN/A
1:30 PM79 °FRain showers. More clouds than sun.9 mph94%29.86 "HgN/A
1:00 PM77 °FHeavy rain. Cloudy.10 mph94%29.86 "Hg2 mi
12:00 PM81 °FMostly cloudy.12 mph84%29.89 "HgN/A
11:30 AM81 °FOvercast.10 mph84%29.89 "HgN/A
11:00 AM81 °FOvercast.12 mph84%29.92 "HgN/A
10:00 AM82 °FMostly cloudy.12 mph79%29.92 "HgN/A
9:30 AM81 °FMostly cloudy.10 mph84%29.92 "HgN/A
9:00 AM81 °FMostly cloudy.10 mph84%29.92 "HgN/A
8:30 AM81 °FOvercast.10 mph84%29.92 "HgN/A
8:00 AM81 °FMostly cloudy.12 mph84%29.92 "HgN/A
7:30 AM79 °FMore clouds than sun.10 mph89%29.92 "HgN/A
7:00 AM79 °FMostly cloudy.12 mph94%29.89 "HgN/A
6:30 AM79 °FBroken clouds.12 mph84%29.89 "HgN/A
6:00 AM79 °FOvercast.10 mph89%29.89 "HgN/A
5:00 AM79 °FPassing clouds.13 mph84%29.86 "HgN/A
4:00 AM79 °FPassing clouds.14 mph84%29.86 "HgN/A
3:00 AM79 °FPassing clouds.13 mph89%29.86 "HgN/A
2:00 AM79 °FMostly cloudy.13 mph84%29.89 "HgN/A
Weather by CustomWeather, © 2016

See weather overviewHow to use our weather pages